Downstream station:
SHEF ID: BCDO2 Kiamichi River near Big Cedar, O
STATION TYPE:
Regulating: Stage = 9.00, Flow = 2088
STAGE RIV-FLOW WTR-TEMP BAT-LOAD
ft cfs F volt
Ccp-Rev Ccp-Rev Ccp-Rev Ccp-Rev
(US/Central)
08/17 00:00 2.44 0 84.79 12.23
08/17 01:00 2.43 0 84.49 12.23
08/17 02:00 2.43 0 84.11 12.23
08/17 03:00 2.43 0 83.77 12.22
08/17 04:00 2.43 0 83.55 12.21
08/17 05:00 2.44 0 83.17 12.21
08/17 06:00 2.44 0 82.94 12.19
08/17 07:00 2.44 0 82.51 12.18
08/17 08:00 2.43 0 82.40 12.20
08/17 09:00 2.40 0 82.02 12.24
08/17 10:00 2.44 0 81.61 12.17
08/17 11:00 2.47 0 81.72 12.24
08/17 12:00 2.47 0 82.00 12.91
08/17 13:00 2.47 0 82.17 13.07
08/17 14:00 2.46 0 82.60 13.00
08/17 15:00 2.47 0 82.54 12.94
08/17 16:00 2.46 0 82.56 12.99
08/17 17:00 2.47 0 82.26 12.90
08/17 18:00 2.47 0 81.91 12.86
08/17 19:00 2.47 0 81.73 12.63
08/17 20:00 2.47 0 81.61 12.53
08/17 21:00 2.47 0 81.45 12.37
08/17 22:00 2.47 0 81.14 12.29
08/17 23:00 2.47 0 80.94 12.24